DW5686 Weather Reports


Display with metric or nautical units.
time (UTC)temp
F
wind
direction
speed
MPH
gust
MPH
rain 1hr
in
rain 24hr
in
rain mn
in
humidity
%
barometer
mb
20260510092005 58 210 2.0 2.0 0.00 0.00 0.00 92 1013.3
20260510091505 58 0 0.0 0.0 0.00 0.00 0.00 92 1013.2
20260510091005 58 0 0.0 0.0 0.00 0.00 0.00 92 1013.1
20260510090506 58 0 0.0 0.0 0.00 0.00 0.00 92 1013.1
20260510090005 58 0 0.0 0.0 0.00 0.00 0.00 92 1013.1
20260510085506 58 0 0.0 0.0 0.00 0.00 0.00 92 1013.0
20260510085006 58 0 0.0 2.0 0.00 0.00 0.00 92 1012.8
20260510084526 58 0 0.0 2.0 0.00 0.00 0.00 92 1012.8
20260510084005 58 210 0.0 2.0 0.00 0.00 0.00 92 1012.7
20260510083506 58 210 0.0 1.0 0.00 0.00 0.00 92 1012.7
20260510083006 58 0 0.0 0.0 0.00 0.00 0.00 92 1012.6
20260510082506 58 0 0.0 0.0 0.00 0.00 0.00 92 1012.6
20260510082005 58 0 0.0 0.0 0.00 0.00 0.00 92 1012.7
20260510081507 58 0 0.0 0.0 0.00 0.00 0.00 92 1012.6
20260510081027 59 0 0.0 0.0 0.00 0.00 0.00 92 1012.5
20260510080505 59 0 0.0 1.0 0.00 0.00 0.00 92 1012.5
20260510080007 59 0 0.0 2.0 0.00 0.00 0.00 92 1012.4
20260510075507 59 210 0.0 2.0 0.00 0.00 0.00 92 1012.5
20260510075007 59 0 0.0 0.0 0.00 0.00 0.00 92 1012.4
20260510074528 59 0 0.0 0.0 0.00 0.00 0.00 91 1012.4
20260510074005 59 0 0.0 1.0 0.00 0.00 0.00 92 1012.3
20260510073527 59 0 0.0 2.0 0.00 0.00 0.00 91 1012.5
20260510073006 59 210 1.0 2.0 0.00 0.00 0.00 91 1012.5
20260510072506 59 0 0.0 0.0 0.00 0.00 0.00 91 1012.4
20260510072005 59 0 0.0 0.0 0.00 0.00 0.00 91 1012.3
20260510071505 59 0 0.0 0.0 0.00 0.00 0.00 91 1012.3
20260510071006 60 0 0.0 1.0 0.00 0.00 0.00 91 1012.2
20260510070505 60 0 0.0 1.0 0.00 0.00 0.00 91 1012.4
20260510070005 60 0 0.0 1.0 0.00 0.00 0.00 91 1012.2
20260510065506 60 0 0.0 2.0 0.00 0.00 0.00 91 1012.3
20260510065006 60 210 0.0 2.0 0.00 0.00 0.00 91 1012.3
20260510064506 60 0 0.0 1.0 0.00 0.00 0.00 91 1012.2
20260510064006 60 210 0.0 1.0 0.00 0.00 0.00 91 1012.3
20260510063506 60 0 0.0 2.0 0.00 0.00 0.00 91 1012.3
20260510063006 60 0 0.0 2.0 0.00 0.00 0.00 91 1012.3
20260510062505 60 210 0.0 2.0 0.00 0.00 0.00 91 1012.3
20260510062006 60 210 0.0 3.0 0.00 0.00 0.00 91 1012.4
20260510061506 60 210 1.0 3.0 0.00 0.00 0.00 91 1012.5
20260510061005 60 210 0.0 2.0 0.00 0.00 0.00 91 1012.5
20260510060507 60 210 0.0 1.0 0.00 0.00 0.00 91 1012.3
20260510060027 60 0 0.0 1.0 0.00 0.00 0.00 89 1012.4
20260510055506 60 210 0.0 1.0 0.00 0.00 0.00 89 1012.4
20260510055028 60 0 0.0 2.0 0.00 0.00 0.00 89 1012.4
20260510054506 60 0 0.0 2.0 0.00 0.00 0.00 89 1012.3
20260510054005 61 210 0.0 2.0 0.00 0.00 0.00 89 1012.5
20260510053506 61 0 0.0 2.0 0.00 0.00 0.00 89 1012.4
20260510053006 61 210 1.0 2.0 0.00 0.00 0.00 89 1012.4
20260510052506 61 210 1.0 2.0 0.00 0.00 0.00 89 1012.5
20260510052007 61 210 2.0 2.0 0.00 0.00 0.00 89 1012.5
20260510051507 61 210 0.0 2.0 0.00 0.00 0.00 89 1012.5
20260510051028 61 210 0.0 2.0 0.00 0.00 0.00 88 1012.3
20260510050528 61 210 2.0 2.0 0.00 0.00 0.00 88 1012.3
20260510050006 62 210 0.0 3.0 0.00 0.00 0.00 89 1012.3
20260510045507 62 210 1.0 3.0 0.00 0.00 0.00 88 1012.4
20260510045005 62 210 1.0 3.0 0.00 0.00 0.00 88 1012.4
20260510044527 62 210 1.0 3.0 0.00 0.00 0.00 88 1012.4
20260510044007 62 210 1.0 3.0 0.00 0.00 0.00 88 1012.4
20260510043527 62 210 2.0 3.0 0.00 0.00 0.00 88 1012.4
20260510043005 62 210 0.0 2.0 0.00 0.00 0.00 88 1012.4
20260510042506 62 210 0.0 4.0 0.00 0.00 0.00 88 1012.5
20260510042006 62 210 1.0 4.0 0.00 0.00 0.00 88 1012.5
20260510041506 62 233 1.0 4.0 0.00 0.00 0.00 88 1012.6
20260510041007 62 0 0.0 4.0 0.00 0.00 0.00 88 1012.6
20260510040506 62 238 0.0 4.0 0.00 0.00 0.00 88 1012.6
20260510040006 62 168 1.0 3.0 0.00 0.00 0.00 88 1012.6
20260510035528 62 168 1.0 3.0 0.00 0.00 0.00 88 1012.7
20260510035006 62 168 1.0 2.0 0.00 0.00 0.00 87 1012.7
20260510034507 62 0 0.0 2.0 0.00 0.00 0.00 87 1012.7
20260510034027 62 168 0.0 3.0 0.00 0.00 0.00 87 1012.6
20260510033506 62 168 1.0 3.0 0.00 0.00 0.00 86 1012.8
20260510033007 63 167 2.0 3.0 0.00 0.00 0.00 86 1012.7
20260510032527 63 0 0.0 3.0 0.00 0.00 0.00 86 1012.8
20260510032006 63 163 0.0 5.0 0.00 0.00 0.00 86 1012.8
20260510031506 63 159 0.0 6.0 0.00 0.00 0.00 86 1012.8
20260510031028 63 159 2.0 6.0 0.00 0.00 0.00 84 1012.6
20260510030527 64 192 2.0 6.0 0.00 0.00 0.00 84 1012.6
20260510030007 64 223 1.0 3.0 0.00 0.00 0.00 84 1012.6
20260510025506 64 0 0.0 5.0 0.00 0.00 0.00 84 1012.6
20260510025007 64 246 3.0 5.0 0.00 0.00 0.00 84 1012.6
20260510024527 64 194 1.0 5.0 0.00 0.00 0.00 83 1012.7
20260510024006 64 229 1.0 5.0 0.00 0.00 0.00 83 1012.5
20260510023507 64 224 1.0 5.0 0.00 0.00 0.00 83 1012.6
20260510023006 64 224 0.0 5.0 0.00 0.00 0.00 83 1012.6
20260510022507 64 235 0.0 3.0 0.00 0.00 0.00 83 1012.6
20260510022006 64 235 1.0 4.0 0.00 0.00 0.00 83 1012.4
20260510021506 64 236 1.0 4.0 0.00 0.00 0.00 83 1012.3
20260510021006 64 162 1.0 5.0 0.00 0.00 0.00 83 1012.4
20260510020506 64 164 2.0 5.0 0.00 0.00 0.00 83 1012.4
20260510020027 64 196 1.0 4.0 0.00 0.00 0.00 83 1012.3
20260510015507 64 207 2.0 4.0 0.00 0.00 0.00 83 1012.2
20260510015007 64 207 0.0 3.0 0.00 0.00 0.00 83 1012.2
20260510014506 64 207 1.0 3.0 0.00 0.00 0.00 83 1012.1
20260510014006 64 207 1.0 5.0 0.00 0.00 0.00 83 1012.1
20260510013506 64 207 0.0 5.0 0.00 0.00 0.00 83 1011.9
20260510013006 64 207 1.0 4.0 0.00 0.00 0.00 83 1011.9
20260510012506 64 151 1.0 3.0 0.00 0.00 0.00 83 1011.8
20260510012006 64 150 1.0 2.0 0.00 0.00 0.00 82 1011.8
20260510011507 64 0 0.0 2.0 0.00 0.00 0.00 82 1011.8
20260510011006 65 150 0.0 2.0 0.00 0.00 0.00 81 1011.6
20260510010506 65 150 0.0 6.0 0.00 0.00 0.00 81 1011.6
20260510010006 65 150 0.0 6.0 0.00 0.00 0.00 79 1011.4
20260510005506 66 150 1.0 5.0 0.00 0.00 0.00 79 1011.3
20260510005006 66 150 1.0 3.0 0.00 0.00 0.00 78 1011.3
20260510004507 66 0 0.0 0.0 0.00 0.00 0.00 78 1011.3
20260510004006 66 0 0.0 4.0 0.00 0.00 0.00 77 1011.3
20260510003506 67 150 0.0 6.0 0.00 0.00 0.00 76 1011.0
20260510003027 67 149 3.0 6.0 0.00 0.00 0.00 75 1010.8
20260510002506 67 156 3.0 6.0 0.00 0.00 0.00 75 1010.8
20260510002005 67 167 0.0 2.0 0.00 0.00 0.00 75 1010.8
20260510001506 68 167 0.0 5.0 0.00 0.00 0.00 75 1010.6
20260510001006 68 171 2.0 6.0 0.00 0.00 0.00 74 1010.6
20260510000527 68 184 1.0 6.0 0.00 0.00 0.00 72 1010.5
20260510000006 69 172 1.0 6.0 0.00 0.00 0.00 72 1010.5
20260509235506 69 175 2.0 6.0 0.00 0.00 0.00 71 1010.5
20260509235006 69 153 4.0 8.0 0.00 0.00 0.00 71 1010.6
20260509234505 69 152 3.0 8.0 0.00 0.00 0.00 70 1010.5
20260509234006 69 159 3.0 7.0 0.00 0.00 0.00 70 1010.5
20260509233506 70 165 1.0 9.0 0.00 0.00 0.00 71 1010.5
20260509233004 70 174 2.0 5.0 0.00 0.00 0.00 70 1010.4
20260509232503 70 198 1.0 9.0 0.00 0.00 0.00 70 1010.4
20260509232003 70 193 2.0 10.0 0.00 0.00 0.00 69 1010.4
20260509231504 70 201 3.0 10.0 0.00 0.00 0.00 69 1010.4
20260509231025 70 230 4.0 13.0 0.00 0.00 0.00 69 1010.4
20260509230505 70 178 6.0 13.0 0.00 0.00 0.00 69 1010.4
20260509230004 70 211 4.0 12.0 0.00 0.00 0.00 69 1010.4
20260509225525 71 186 5.0 13.0 0.00 0.00 0.00 68 1010.3
20260509225003 71 179 4.0 13.0 0.00 0.00 0.00 68 1010.3
20260509224503 71 177 5.0 12.0 0.00 0.00 0.00 68 1010.3
20260509224005 71 171 4.0 11.0 0.00 0.00 0.00 68 1010.2
20260509223504 71 191 3.0 11.0 0.00 0.00 0.00 68 1010.1
20260509223024 71 176 5.0 10.0 0.00 0.00 0.00 67 1010.0
20260509222504 71 217 5.0 11.0 0.00 0.00 0.00 67 1009.8
20260509222025 72 162 5.0 12.0 0.00 0.00 0.00 67 1009.6
20260509221505 72 170 2.0 12.0 0.00 0.00 0.00 67 1009.9
20260509221003 71 175 4.0 13.0 0.00 0.00 0.00 67 1010.0
20260509220504 71 195 5.0 13.0 0.00 0.00 0.00 65 1009.7
20260509220005 72 212 3.0 8.0 0.00 0.00 0.00 67 1009.8
20260509215524 72 224 3.0 12.0 0.00 0.00 0.00 65 1009.8
20260509215003 72 197 5.0 12.0 0.00 0.00 0.00 64 1009.8
20260509214504 72 223 4.0 10.0 0.00 0.00 0.00 65 1009.8
20260509214004 72 172 2.0 10.0 0.00 0.00 0.00 65 1009.7
20260509213504 72 189 4.0 10.0 0.00 0.00 0.00 65 1009.6
20260509213005 72 179 2.0 14.0 0.00 0.00 0.00 67 1009.7
20260509212505 72 170 4.0 14.0 0.00 0.00 0.00 65 1009.7
20260509212004 72 170 5.0 16.0 0.00 0.00 0.00 65 1009.7
20260509211504 72 176 6.0 16.0 0.00 0.00 0.00 65 1009.7
20260509211025 72 206 5.0 12.0 0.00 0.00 0.00 65 1009.8
20260509210525 72 211 4.0 12.0 0.00 0.00 0.00 64 1009.8
20260509210004 72 165 6.0 12.0 0.00 0.00 0.00 65 1009.6
20260509205505 72 228 7.0 14.0 0.00 0.00 0.00 64 1009.7
20260509205004 72 190 6.0 14.0 0.00 0.00 0.00 64 1009.8
20260509204504 73 176 8.0 14.0 0.00 0.00 0.00 64 1009.9
20260509204005 72 210 6.0 10.0 0.00 0.00 0.00 64 1009.9
20260509203504 72 226 3.0 11.0 0.00 0.00 0.00 65 1009.8
20260509203003 73 204 5.0 11.0 0.00 0.00 0.00 64 1009.9
20260509202526 73 174 4.0 14.0 0.00 0.00 0.00 63 1010.0
20260509202004 73 183 6.0 19.0 0.00 0.00 0.00 64 1009.9
20260509201504 72 221 4.0 19.0 0.00 0.00 0.00 65 1010.1
20260509201025 72 173 6.0 15.0 0.00 0.00 0.00 67 1010.0
20260509200504 72 173 6.0 15.0 0.00 0.00 0.00 67 1009.8
20260509200004 72 164 9.0 15.0 0.00 0.00 0.00 65 1010.0
20260509195504 71 156 10.0 13.0 0.00 0.00 0.00 65 1009.9
20260509195005 71 173 6.0 12.0 0.00 0.00 0.00 68 1010.0
20260509194504 71 181 3.0 13.0 0.00 0.00 0.00 67 1010.1
20260509194004 71 175 6.0 15.0 0.00 0.00 0.00 67 1010.2
20260509193505 72 172 6.0 15.0 0.00 0.00 0.00 67 1010.0
20260509193004 72 163 5.0 16.0 0.00 0.00 0.00 65 1010.0
20260509192504 71 168 9.0 16.0 0.00 0.00 0.00 68 1010.2
20260509192004 71 171 9.0 14.0 0.00 0.00 0.00 68 1010.4
20260509191505 70 161 6.0 14.0 0.00 0.00 0.00 68 1010.4
20260509191003 71 209 4.0 12.0 0.00 0.00 0.00 67 1010.4
20260509190504 71 171 8.0 12.0 0.00 0.00 0.00 65 1010.4
20260509190004 71 203 6.0 11.0 0.00 0.00 0.00 68 1010.3
20260509185504 71 186 2.0 11.0 0.00 0.01 0.00 67 1010.4
20260509185004 71 161 6.0 11.0 0.00 0.01 0.00 68 1010.6
20260509184504 70 168 7.0 13.0 0.00 0.01 0.00 68 1010.6
20260509184004 70 164 7.0 13.0 0.00 0.01 0.00 69 1010.7
20260509183505 69 237 5.0 14.0 0.00 0.01 0.00 68 1010.6
20260509183005 70 178 4.0 14.0 0.00 0.01 0.00 69 1010.7
20260509182504 70 227 4.0 12.0 0.00 0.02 0.00 68 1010.9
20260509182004 70 169 6.0 12.0 0.00 0.02 0.00 68 1010.7
20260509181504 70 199 4.0 11.0 0.00 0.02 0.00 68 1010.8
20260509181004 69 228 6.0 11.0 0.00 0.02 0.00 68 1010.7
20260509180505 69 178 2.0 12.0 0.00 0.02 0.00 69 1010.9
20260509180004 70 229 6.0 13.0 0.00 0.02 0.00 67 1010.9
20260509175504 70 195 3.0 13.0 0.00 0.02 0.00 68 1011.0
20260509175004 70 167 3.0 8.0 0.00 0.02 0.00 69 1011.0
20260509174504 70 265 2.0 10.0 0.00 0.02 0.00 69 1011.0
20260509174025 69 178 1.0 10.0 0.00 0.02 0.00 70 1011.0
20260509173504 69 182 2.0 8.0 0.00 0.02 0.00 68 1011.0
20260509173003 69 200 2.0 12.0 0.00 0.02 0.00 69 1011.1
20260509172504 69 185 3.0 12.0 0.00 0.02 0.00 69 1011.0
20260509172004 69 172 6.0 10.0 0.00 0.02 0.00 68 1011.2
20260509171526 69 192 3.0 11.0 0.00 0.02 0.00 70 1011.2
20260509171025 68 161 2.0 11.0 0.00 0.02 0.00 71 1011.2
20260509170504 68 223 2.0 8.0 0.00 0.02 0.00 74 1011.3
20260509170005 68 153 4.0 11.0 0.00 0.02 0.00 72 1011.5
20260509165526 68 219 2.0 11.0 0.00 0.02 0.00 74 1011.5
20260509165025 68 254 3.0 11.0 0.00 0.02 0.00 72 1011.5
20260509164504 68 170 5.0 11.0 0.00 0.02 0.00 72 1011.4
20260509164026 68 219 3.0 8.0 0.00 0.02 0.00 71 1011.6
20260509163505 68 245 2.0 7.0 0.00 0.02 0.00 72 1011.7
20260509163026 67 241 2.0 11.0 0.00 0.02 0.00 74 1011.9
20260509162504 67 221 4.0 11.0 0.00 0.02 0.00 72 1011.8
20260509162004 67 215 4.0 12.0 0.00 0.02 0.00 74 1011.9
20260509161525 68 203 6.0 12.0 0.00 0.02 0.00 71 1011.9
20260509161004 68 232 4.0 11.0 0.00 0.02 0.00 71 1011.9
20260509160504 68 203 4.0 11.0 0.00 0.02 0.00 71 1012.2
20260509160004 68 165 6.0 11.0 0.00 0.02 0.00 75 1012.2
20260509155505 68 199 4.0 8.0 0.00 0.02 0.00 74 1012.0
20260509155004 67 246 3.0 8.0 0.00 0.02 0.00 77 1012.2
20260509154505 66 240 3.0 7.0 0.00 0.02 0.00 75 1012.3
20260509154004 66 250 3.0 7.0 0.00 0.02 0.00 74 1012.2
20260509153525 66 235 3.0 8.0 0.00 0.02 0.00 77 1012.0
20260509153005 66 184 3.0 8.0 0.00 0.02 0.00 75 1011.9
20260509152504 66 182 5.0 11.0 0.00 0.02 0.00 77 1012.1
20260509152004 66 160 5.0 12.0 0.00 0.02 0.00 76 1012.1
20260509151505 65 162 6.0 12.0 0.00 0.02 0.00 76 1012.1
20260509151025 65 163 4.0 9.0 0.00 0.02 0.00 78 1012.0
20260509150525 65 186 3.0 12.0 0.00 0.02 0.00 78 1011.9
20260509150005 65 171 6.0 12.0 0.00 0.02 0.00 78 1011.9
20260509145504 65 172 6.0 10.0 0.00 0.02 0.00 78 1012.0
20260509145005 64 173 4.0 9.0 0.00 0.02 0.00 81 1011.9
20260509144505 64 213 1.0 12.0 0.00 0.02 0.00 81 1011.7
20260509144005 64 171 7.0 12.0 0.00 0.02 0.00 82 1011.7
20260509143504 64 164 5.0 12.0 0.00 0.02 0.00 82 1012.0
20260509143004 64 168 5.0 12.0 0.00 0.02 0.00 82 1012.1
20260509142504 64 169 4.0 10.0 0.00 0.02 0.00 82 1012.2
20260509142025 64 176 3.0 14.0 0.00 0.02 0.00 82 1012.2
20260509141526 64 170 7.0 14.0 0.00 0.02 0.00 82 1012.3
20260509141005 63 184 4.0 9.0 0.00 0.02 0.00 83 1012.3
20260509140505 63 191 2.0 10.0 0.00 0.02 0.00 84 1012.1
20260509140006 62 169 3.0 12.0 0.00 0.02 0.00 84 1012.2
20260509135504 63 168 6.0 12.0 0.00 0.02 0.00 86 1012.3
20260509135026 62 205 5.0 10.0 0.00 0.02 0.00 84 1012.3
20260509134504 62 178 5.0 10.0 0.00 0.02 0.00 86 1012.2
20260509134004 62 228 4.0 9.0 0.00 0.02 0.00 86 1012.0
20260509133525 62 167 3.0 9.0 0.00 0.02 0.00 87 1012.0
20260509133026 61 160 4.0 7.0 0.00 0.02 0.00 87 1012.2
20260509132504 61 214 4.0 10.0 0.00 0.02 0.00 87 1012.4
20260509132004 61 198 4.0 10.0 0.00 0.02 0.00 88 1012.5
20260509131505 61 166 4.0 7.0 0.00 0.02 0.00 88 1012.4
20260509131005 61 169 1.0 8.0 0.00 0.02 0.00 88 1012.8
20260509130504 60 198 3.0 8.0 0.00 0.02 0.00 88 1012.6
20260509130005 60 166 2.0 7.0 0.00 0.02 0.00 89 1012.7
20260509125504 60 142 1.0 7.0 0.00 0.02 0.00 89 1012.8
20260509125004 60 177 1.0 6.0 0.00 0.02 0.00 89 1012.7
20260509124504 59 236 1.0 6.0 0.00 0.02 0.00 89 1012.7
20260509124005 59 202 1.0 4.0 0.00 0.02 0.00 89 1012.8
20260509123504 59 191 1.0 4.0 0.00 0.02 0.00 91 1012.8
20260509123005 58 195 0.0 6.0 0.00 0.02 0.00 91 1013.0
20260509122505 58 205 1.0 6.0 0.00 0.02 0.00 91 1013.1
20260509122004 58 165 0.0 2.0 0.00 0.02 0.00 89 1013.0
20260509121525 58 161 1.0 7.0 0.00 0.02 0.00 89 1012.8
20260509121004 58 161 2.0 7.0 0.00 0.02 0.00 89 1012.5
20260509120505 57 172 3.0 6.0 0.00 0.02 0.00 91 1012.6
20260509120004 57 173 3.0 5.0 0.00 0.02 0.00 91 1012.7
20260509115525 56 218 1.0 6.0 0.00 0.02 0.00 91 1012.8
20260509115005 56 214 1.0 6.0 0.00 0.02 0.00 89 1012.8
20260509114504 56 154 3.0 5.0 0.00 0.02 0.00 91 1012.6
20260509114025 56 153 0.0 4.0 0.00 0.02 0.00 89 1012.8
20260509113504 56 153 2.0 5.0 0.00 0.02 0.00 89 1012.3
20260509113005 55 163 3.0 5.0 0.00 0.02 0.00 89 1012.4
20260509112504 55 176 0.0 3.0 0.00 0.02 0.00 89 1012.7
20260509112005 55 176 2.0 3.0 0.00 0.02 0.00 89 1012.8
20260509111505 55 176 1.0 4.0 0.00 0.02 0.00 88 1012.8
20260509111004 55 176 2.0 11.0 0.00 0.02 0.00 88 1013.0
20260509110504 55 176 1.0 11.0 0.00 0.02 0.00 88 1012.9
20260509110005 55 176 1.0 4.0 0.00 0.02 0.00 88 1013.0
20260509105504 55 177 0.0 3.0 0.00 0.02 0.00 88 1012.7
20260509105005 54 177 1.0 3.0 0.00 0.02 0.00 88 1012.8
20260509104504 54 177 2.0 3.0 0.00 0.02 0.00 89 1012.6
20260509104005 54 177 1.0 2.0 0.00 0.02 0.00 89 1012.5
20260509103504 54 177 1.0 2.0 0.00 0.02 0.00 89 1012.6
20260509103004 54 0 0.0 1.0 0.00 0.02 0.00 89 1012.3
20260509102505 54 0 0.0 1.0 0.00 0.02 0.00 89 1012.5
20260509102027 53 0 0.0 1.0 0.00 0.02 0.00 89 1012.3
20260509101505 53 177 0.0 2.0 0.00 0.02 0.00 89 1012.3
20260509101005 53 177 1.0 2.0 0.00 0.02 0.00 89 1012.2
20260509100504 53 177 1.0 2.0 0.00 0.02 0.00 89 1012.0
20260509100005 53 0 0.0 2.0 0.00 0.02 0.00 89 1012.2
20260509095525 53 0 0.0 2.0 0.00 0.02 0.00 88 1011.9
20260509095004 53 177 1.0 2.0 0.00 0.02 0.00 88 1012.0
20260509094505 53 177 1.0 2.0 0.00 0.02 0.00 88 1011.8
20260509094027 53 177 0.0 1.0 0.00 0.02 0.00 88 1011.9
20260509093504 52 0 0.0 0.0 0.00 0.02 0.00 88 1011.9
20260509093004 52 0 0.0 0.0 0.00 0.02 0.00 88 1012.0
20260509092506 53 0 0.0 0.0 0.00 0.02 0.00 88 1012.2